Time,TemperatureF,DewpointF,PressureIn,WindDirection,WindDirectionDegrees,WindSpeedMPH,WindSpeedGustMPH,Humidity,HourlyPrecipIn,Conditions,Clouds,dailyrainin,SoftwareType,DateUTC
2013-03-20 00:02:00,31.0,26.0,30.23,WSW,247,5.0,7.0,81,-99.99,,,-99.99,,2013-03-20 05:02:00,
2013-03-20 00:12:00,31.0,27.0,30.23,WSW,247,5.0,7.0,83,-99.99,,,-99.99,,2013-03-20 05:12:00,
2013-03-20 00:22:00,32.0,27.0,30.23,WSW,247,4.0,7.0,85,-99.99,,,-99.99,,2013-03-20 05:22:00,
2013-03-20 00:32:00,32.0,28.0,30.23,WSW,247,6.0,9.0,86,-99.99,,,-99.99,,2013-03-20 05:32:00,
2013-03-20 00:42:00,32.0,29.0,30.23,WSW,247,6.0,9.0,88,-99.99,,,-99.99,,2013-03-20 05:42:00,
2013-03-20 00:52:00,33.0,30.0,30.23,West,270,6.0,12.0,89,-99.99,,,-99.99,,2013-03-20 05:52:00,
2013-03-20 01:02:00,33.0,30.0,30.23,West,270,6.0,9.0,90,-99.99,,,-99.99,,2013-03-20 06:02:00,
2013-03-20 01:12:00,32.0,30.0,30.23,West,270,6.0,9.0,91,-99.99,,,-99.99,,2013-03-20 06:12:00,
2013-03-20 01:22:00,32.0,30.0,30.23,West,270,6.0,9.0,91,-99.99,,,-99.99,,2013-03-20 06:22:00,
2013-03-20 01:32:00,32.0,30.0,30.23,West,270,6.0,9.0,91,-99.99,,,-99.99,,2013-03-20 06:32:00,
2013-03-20 01:42:00,32.0,30.0,30.23,West,270,6.0,8.0,92,-99.99,,,-99.99,,2013-03-20 06:42:00,
2013-03-20 01:52:00,32.0,30.0,30.23,West,270,6.0,7.0,93,-99.99,,,-99.99,,2013-03-20 06:52:00,
2013-03-20 02:02:00,32.0,30.0,30.23,West,270,6.0,9.0,93,-99.99,,,-99.99,,2013-03-20 07:02:00,
2013-03-20 02:12:00,32.0,31.0,30.23,NW,315,7.0,10.0,94,-99.99,,,-99.99,,2013-03-20 07:12:00,
2013-03-20 02:22:00,32.0,31.0,30.23,NW,315,8.0,12.0,94,-99.99,,,-99.99,,2013-03-20 07:22:00,
2013-03-20 02:32:00,32.0,31.0,30.23,NW,315,9.0,14.0,95,-99.99,,,-99.99,,2013-03-20 07:32:00,
2013-03-20 02:42:00,32.0,31.0,30.23,NNW,337,10.0,13.0,95,-99.99,,,-99.99,,2013-03-20 07:42:00,
2013-03-20 02:52:00,32.0,30.0,30.23,NNW,337,11.0,16.0,94,-99.99,,,-99.99,,2013-03-20 07:52:00,
2013-03-20 03:02:00,32.0,29.0,30.23,NNW,337,11.0,15.0,88,-99.99,,,-99.99,,2013-03-20 08:02:00,
2013-03-20 03:12:00,31.0,26.0,30.23,NNW,337,9.0,12.0,82,-99.99,,,-99.99,,2013-03-20 08:12:00,
2013-03-20 03:22:00,31.0,24.0,30.24,NNW,337,10.0,14.0,76,-99.99,,,-99.99,,2013-03-20 08:22:00,
2013-03-20 03:32:00,30.0,23.0,30.24,NNW,337,9.0,14.0,75,-99.99,,,-99.99,,2013-03-20 08:32:00,
2013-03-20 03:42:00,30.0,23.0,30.24,NNW,337,8.0,10.0,76,-99.99,,,-99.99,,2013-03-20 08:42:00,
2013-03-20 03:51:00,29.0,23.0,30.24,NNW,337,9.0,13.0,76,-99.99,,,-99.99,,2013-03-20 08:51:00,
2013-03-20 04:02:00,29.0,22.0,30.24,NNW,337,9.0,13.0,75,-99.99,,,-99.99,,2013-03-20 09:02:00,
2013-03-20 04:12:00,29.0,23.0,30.24,NNW,337,8.0,11.0,78,-99.99,,,-99.99,,2013-03-20 09:12:00,
2013-03-20 04:22:00,29.0,23.0,30.24,NNW,337,7.0,10.0,79,-99.99,,,-99.99,,2013-03-20 09:22:00,
2013-03-20 04:32:00,29.0,23.0,30.23,NNW,337,10.0,16.0,79,-99.99,,,-99.99,,2013-03-20 09:32:00,
2013-03-20 04:43:00,29.0,23.0,30.24,NNW,337,10.0,15.0,78,-99.99,,,-99.99,,2013-03-20 09:43:00,
2013-03-20 04:52:00,28.0,23.0,30.24,NNW,337,11.0,16.0,80,-99.99,,,-99.99,,2013-03-20 09:52:00,
2013-03-20 05:03:00,28.0,23.0,30.24,NNW,337,12.0,17.0,81,-99.99,,,-99.99,,2013-03-20 10:03:00,
2013-03-20 05:12:00,28.0,23.0,30.24,NNW,337,10.0,15.0,81,-99.99,,,-99.99,,2013-03-20 10:12:00,
2013-03-20 05:22:00,28.0,23.0,30.24,NNW,337,10.0,16.0,81,-99.99,,,-99.99,,2013-03-20 10:22:00,
2013-03-20 05:32:00,27.0,23.0,30.25,NNW,337,11.0,17.0,82,-99.99,,,-99.99,,2013-03-20 10:32:00,
2013-03-20 05:42:00,28.0,23.0,30.26,NNW,337,12.0,17.0,82,-99.99,,,-99.99,,2013-03-20 10:42:00,
2013-03-20 05:52:00,27.0,23.0,30.26,NNW,337,11.0,16.0,83,-99.99,,,-99.99,,2013-03-20 10:52:00,
2013-03-20 06:02:00,27.0,22.0,30.26,NNW,337,13.0,20.0,82,-99.99,,,-99.99,,2013-03-20 11:02:00,
2013-03-20 06:12:00,27.0,22.0,30.27,NNW,337,12.0,19.0,82,-99.99,,,-99.99,,2013-03-20 11:12:00,
2013-03-20 06:22:00,27.0,22.0,30.27,NNW,337,13.0,21.0,82,-99.99,,,-99.99,,2013-03-20 11:22:00,
2013-03-20 06:32:00,27.0,22.0,30.27,NNW,337,12.0,17.0,82,-99.99,,,-99.99,,2013-03-20 11:32:00,
2013-03-20 06:42:00,27.0,23.0,30.28,NNW,337,10.0,18.0,84,-99.99,,,-99.99,,2013-03-20 11:42:00,
2013-03-20 06:52:00,27.0,22.0,30.28,NNW,337,10.0,15.0,84,-99.99,,,-99.99,,2013-03-20 11:52:00,
2013-03-20 07:02:00,27.0,22.0,30.28,NNW,337,11.0,16.0,84,-99.99,,,-99.99,,2013-03-20 12:02:00,
2013-03-20 07:12:00,26.0,21.0,30.29,NNW,337,12.0,17.0,80,-99.99,,,-99.99,,2013-03-20 12:12:00,
2013-03-20 07:22:00,26.0,20.0,30.29,NNW,337,12.0,21.0,79,-99.99,,,-99.99,,2013-03-20 12:22:00,
2013-03-20 07:32:00,26.0,20.0,30.30,NNW,337,14.0,21.0,79,-99.99,,,-99.99,,2013-03-20 12:32:00,
2013-03-20 07:42:00,25.0,20.0,30.30,NNW,337,14.0,22.0,79,-99.99,,,-99.99,,2013-03-20 12:42:00,
2013-03-20 07:52:00,25.0,19.0,30.31,East,90,11.0,18.0,81,-99.99,,,-99.99,,2013-03-20 12:52:00,
2013-03-20 08:03:00,24.0,19.0,30.31,East,90,11.0,16.0,82,-99.99,,,-99.99,,2013-03-20 13:03:00,
2013-03-20 08:12:00,23.0,18.0,30.32,East,90,13.0,19.0,80,-99.99,,,-99.99,,2013-03-20 13:12:00,
2013-03-20 08:22:00,23.0,17.0,30.32,NNW,337,15.0,20.0,78,-99.99,,,-99.99,,2013-03-20 13:22:00,
2013-03-20 08:32:00,23.0,18.0,30.32,NNW,337,10.0,17.0,79,-99.99,,,-99.99,,2013-03-20 13:32:00,
2013-03-20 08:42:00,24.0,17.0,30.32,East,90,13.0,17.0,77,-99.99,,,-99.99,,2013-03-20 13:42:00,
2013-03-20 08:52:00,25.0,18.0,30.32,NNW,337,10.0,16.0,75,-99.99,,,-99.99,,2013-03-20 13:52:00,
2013-03-20 09:02:00,24.0,17.0,30.33,NNW,337,11.0,16.0,75,-99.99,,,-99.99,,2013-03-20 14:02:00,
2013-03-20 09:12:00,24.0,17.0,30.33,East,90,11.0,16.0,76,-99.99,,,-99.99,,2013-03-20 14:12:00,
2013-03-20 09:22:00,23.0,17.0,30.33,East,90,12.0,18.0,75,-99.99,,,-99.99,,2013-03-20 14:22:00,
2013-03-20 09:42:00,25.0,17.0,30.33,NNW,337,11.0,16.0,73,-99.99,,,-99.99,,2013-03-20 14:42:00,
2013-03-20 09:52:00,25.0,18.0,30.33,NNW,337,11.0,16.0,74,-99.99,,,-99.99,,2013-03-20 14:52:00,
2013-03-20 10:02:00,25.0,18.0,30.33,NNW,337,10.0,17.0,74,-99.99,,,-99.99,,2013-03-20 15:02:00,
2013-03-20 10:12:00,25.0,18.0,30.33,NW,315,10.0,14.0,73,-99.99,,,-99.99,,2013-03-20 15:12:00,
2013-03-20 10:22:00,25.0,18.0,30.33,NW,315,12.0,16.0,74,-99.99,,,-99.99,,2013-03-20 15:22:00,
2013-03-20 10:33:00,25.0,19.0,30.33,NW,315,12.0,15.0,77,-99.99,,,-99.99,,2013-03-20 15:33:00,
2013-03-20 10:43:00,25.0,19.0,30.33,NW,315,10.0,14.0,77,-99.99,,,-99.99,,2013-03-20 15:43:00,
2013-03-20 10:52:00,26.0,19.0,30.33,NW,315,13.0,17.0,76,-99.99,,,-99.99,,2013-03-20 15:52:00,
2013-03-20 11:03:00,25.0,20.0,30.33,NW,315,10.0,16.0,80,-99.99,,,-99.99,,2013-03-20 16:03:00,
2013-03-20 11:12:00,24.0,22.0,30.34,NW,315,13.0,21.0,93,-99.99,,,-99.99,,2013-03-20 16:12:00,
2013-03-20 11:23:00,23.0,21.0,30.33,NW,315,14.0,19.0,92,-99.99,,,-99.99,,2013-03-20 16:23:00,
2013-03-20 11:32:00,23.0,19.0,30.33,WNW,292,11.0,17.0,84,-99.99,,,-99.99,,2013-03-20 16:32:00,
2013-03-20 11:42:00,27.0,21.0,30.33,WNW,292,11.0,14.0,79,-99.99,,,-99.99,,2013-03-20 16:42:00,
2013-03-20 11:52:00,25.0,19.0,30.33,NW,315,13.0,17.0,78,-99.99,,,-99.99,,2013-03-20 16:52:00,
2013-03-20 12:03:00,26.0,18.0,30.32,NW,315,13.0,20.0,73,-99.99,,,-99.99,,2013-03-20 17:03:00,
2013-03-20 12:12:00,26.0,16.0,30.32,NW,315,12.0,20.0,67,-99.99,,,-99.99,,2013-03-20 17:12:00,
2013-03-20 12:22:00,27.0,17.0,30.32,WNW,292,12.0,16.0,65,-99.99,,,-99.99,,2013-03-20 17:22:00,
2013-03-20 12:32:00,27.0,16.0,30.32,NW,315,15.0,21.0,64,-99.99,,,-99.99,,2013-03-20 17:32:00,
2013-03-20 12:42:00,27.0,16.0,30.32,NW,315,14.0,21.0,61,-99.99,,,-99.99,,2013-03-20 17:42:00,
2013-03-20 12:52:00,28.0,16.0,30.31,WNW,292,14.0,20.0,59,-99.99,,,-99.99,,2013-03-20 17:52:00,
2013-03-20 13:02:00,28.0,16.0,30.31,NW,315,15.0,23.0,60,-99.99,,,-99.99,,2013-03-20 18:02:00,
2013-03-20 13:12:00,28.0,17.0,30.31,WNW,292,14.0,20.0,64,-99.99,,,-99.99,,2013-03-20 18:12:00,
2013-03-20 13:22:00,27.0,17.0,30.31,WNW,292,13.0,19.0,64,-99.99,,,-99.99,,2013-03-20 18:22:00,
2013-03-20 13:33:00,28.0,16.0,30.31,NW,315,13.0,20.0,62,-99.99,,,-99.99,,2013-03-20 18:33:00,
2013-03-20 13:42:00,28.0,15.0,30.30,NW,315,15.0,19.0,58,-99.99,,,-99.99,,2013-03-20 18:42:00,
2013-03-20 13:52:00,29.0,16.0,30.30,WNW,292,12.0,17.0,59,-99.99,,,-99.99,,2013-03-20 18:52:00,
2013-03-20 14:02:00,29.0,15.0,30.29,NW,315,13.0,19.0,57,-99.99,,,-99.99,,2013-03-20 19:02:00,
2013-03-20 14:12:00,29.0,15.0,30.29,WNW,292,13.0,20.0,56,-99.99,,,-99.99,,2013-03-20 19:12:00,
2013-03-20 14:22:00,29.0,16.0,30.28,WNW,292,13.0,20.0,58,-99.99,,,-99.99,,2013-03-20 19:22:00,
2013-03-20 14:32:00,29.0,16.0,30.28,WNW,292,13.0,22.0,58,-99.99,,,-99.99,,2013-03-20 19:32:00,
2013-03-20 14:42:00,29.0,16.0,30.28,WNW,292,15.0,21.0,58,-99.99,,,-99.99,,2013-03-20 19:42:00,
2013-03-20 14:52:00,28.0,15.0,30.27,NW,315,16.0,22.0,57,-99.99,,,-99.99,,2013-03-20 19:52:00,
2013-03-20 15:02:00,30.0,16.0,30.27,WNW,292,13.0,22.0,56,-99.99,,,-99.99,,2013-03-20 20:02:00,
2013-03-20 15:12:00,30.0,16.0,30.26,NW,315,17.0,25.0,56,-99.99,,,-99.99,,2013-03-20 20:12:00,
2013-03-20 15:22:00,30.0,16.0,30.25,WNW,292,14.0,23.0,54,-99.99,,,-99.99,,2013-03-20 20:22:00,
2013-03-20 15:32:00,30.0,16.0,30.25,NW,315,16.0,22.0,53,-99.99,,,-99.99,,2013-03-20 20:32:00,
2013-03-20 15:42:00,30.0,16.0,30.25,NW,315,14.0,21.0,54,-99.99,,,-99.99,,2013-03-20 20:42:00,
2013-03-20 15:52:00,31.0,14.0,30.24,WNW,292,14.0,21.0,50,-99.99,,,-99.99,,2013-03-20 20:52:00,
2013-03-20 16:02:00,31.0,15.0,30.24,NW,315,15.0,21.0,51,-99.99,,,-99.99,,2013-03-20 21:02:00,
2013-03-20 16:12:00,31.0,15.0,30.24,WNW,292,12.0,17.0,53,-99.99,,,-99.99,,2013-03-20 21:12:00,
2013-03-20 16:22:00,31.0,16.0,30.23,NW,315,13.0,20.0,52,-99.99,,,-99.99,,2013-03-20 21:22:00,
2013-03-20 16:33:00,31.0,14.0,30.23,NW,315,16.0,22.0,48,-99.99,,,-99.99,,2013-03-20 21:33:00,
2013-03-20 16:42:00,32.0,14.0,30.22,NW,315,15.0,23.0,49,-99.99,,,-99.99,,2013-03-20 21:42:00,
2013-03-20 16:52:00,31.0,14.0,30.22,NW,315,15.0,22.0,48,-99.99,,,-99.99,,2013-03-20 21:52:00,
2013-03-20 17:03:00,31.0,14.0,30.22,NW,315,10.0,14.0,48,-99.99,,,-99.99,,2013-03-20 22:03:00,
2013-03-20 17:12:00,31.0,15.0,30.22,NW,315,11.0,18.0,51,-99.99,,,-99.99,,2013-03-20 22:12:00,
2013-03-20 17:23:00,30.0,14.0,30.22,WNW,292,10.0,17.0,50,-99.99,,,-99.99,,2013-03-20 22:23:00,
2013-03-20 17:32:00,31.0,14.0,30.21,WNW,292,12.0,19.0,50,-99.99,,,-99.99,,2013-03-20 22:32:00,
2013-03-20 17:42:00,31.0,14.0,30.21,NW,315,12.0,21.0,48,-99.99,,,-99.99,,2013-03-20 22:42:00,
2013-03-20 17:52:00,31.0,13.0,30.21,NW,315,14.0,18.0,47,-99.99,,,-99.99,,2013-03-20 22:52:00,
2013-03-20 18:02:00,31.0,14.0,30.21,NW,315,11.0,16.0,48,-99.99,,,-99.99,,2013-03-20 23:02:00,
2013-03-20 18:12:00,31.0,13.0,30.21,NW,315,15.0,22.0,48,-99.99,,,-99.99,,2013-03-20 23:12:00,
2013-03-20 18:22:00,31.0,14.0,30.20,WNW,292,11.0,15.0,48,-99.99,,,-99.99,,2013-03-20 23:22:00,
2013-03-20 18:32:00,31.0,13.0,30.20,NW,315,12.0,16.0,48,-99.99,,,-99.99,,2013-03-20 23:32:00,
2013-03-20 18:42:00,31.0,13.0,30.20,WNW,292,10.0,14.0,48,-99.99,,,-99.99,,2013-03-20 23:42:00,
2013-03-20 18:52:00,30.0,13.0,30.20,NW,315,13.0,18.0,47,-99.99,,,-99.99,,2013-03-20 23:52:00,
2013-03-20 19:02:00,30.0,14.0,30.20,NW,315,11.0,15.0,50,-99.99,,,-99.99,,2013-03-21 00:02:00,
2013-03-20 19:12:00,30.0,14.0,30.20,NW,315,12.0,17.0,51,-99.99,,,-99.99,,2013-03-21 00:12:00,
2013-03-20 19:23:00,29.0,13.0,30.20,NW,315,12.0,17.0,50,-99.99,,,-99.99,,2013-03-21 00:23:00,
2013-03-20 19:32:00,29.0,15.0,30.19,NW,315,9.0,14.0,54,-99.99,,,-99.99,,2013-03-21 00:32:00,
2013-03-20 19:42:00,29.0,14.0,30.19,NW,315,8.0,12.0,53,-99.99,,,-99.99,,2013-03-21 00:42:00,
2013-03-20 19:52:00,29.0,14.0,30.19,NW,315,8.0,13.0,53,-99.99,,,-99.99,,2013-03-21 00:52:00,
2013-03-20 20:02:00,29.0,15.0,30.19,WNW,292,7.0,11.0,55,-99.99,,,-99.99,,2013-03-21 01:02:00,
2013-03-20 20:12:00,29.0,15.0,30.19,WNW,292,7.0,11.0,56,-99.99,,,-99.99,,2013-03-21 01:12:00,
2013-03-20 20:22:00,29.0,14.0,30.19,WNW,292,8.0,12.0,55,-99.99,,,-99.99,,2013-03-21 01:22:00,
2013-03-20 20:32:00,28.0,14.0,30.18,WNW,292,8.0,12.0,55,-99.99,,,-99.99,,2013-03-21 01:32:00,
2013-03-20 20:42:00,28.0,15.0,30.18,WNW,292,6.0,9.0,56,-99.99,,,-99.99,,2013-03-21 01:42:00,
2013-03-20 20:52:00,28.0,15.0,30.18,WNW,292,6.0,8.0,57,-99.99,,,-99.99,,2013-03-21 01:52:00,
2013-03-20 21:02:00,28.0,16.0,30.18,WNW,292,6.0,9.0,59,-99.99,,,-99.99,,2013-03-21 02:02:00,
2013-03-20 21:12:00,27.0,16.0,30.18,NW,315,5.0,7.0,61,-99.99,,,-99.99,,2013-03-21 02:12:00,
2013-03-20 21:22:00,27.0,16.0,30.17,WNW,292,4.0,6.0,63,-99.99,,,-99.99,,2013-03-21 02:22:00,
2013-03-20 21:32:00,27.0,16.0,30.17,NW,315,5.0,8.0,65,-99.99,,,-99.99,,2013-03-21 02:32:00,
2013-03-20 21:42:00,27.0,16.0,30.17,NW,315,5.0,8.0,65,-99.99,,,-99.99,,2013-03-21 02:42:00,
2013-03-20 21:51:00,27.0,16.0,30.17,NW,315,5.0,8.0,65,-99.99,,,-99.99,,2013-03-21 02:51:00,
2013-03-20 22:02:00,25.0,18.0,30.17,NNW,337,4.0,5.0,74,-99.99,,,-99.99,,2013-03-21 03:02:00,
2013-03-20 22:12:00,25.0,18.0,30.17,NW,315,4.0,6.0,74,-99.99,,,-99.99,,2013-03-21 03:12:00,
2013-03-20 22:22:00,25.0,18.0,30.17,NW,315,4.0,5.0,73,-99.99,,,-99.99,,2013-03-21 03:22:00,
2013-03-20 22:32:00,25.0,18.0,30.17,NW,315,3.0,5.0,74,-99.99,,,-99.99,,2013-03-21 03:32:00,
2013-03-20 22:43:00,25.0,18.0,30.17,NW,315,4.0,4.0,74,-99.99,,,-99.99,,2013-03-21 03:43:00,
2013-03-20 22:53:00,25.0,18.0,30.17,NW,315,3.0,4.0,77,-99.99,,,-99.99,,2013-03-21 03:53:00,
2013-03-20 23:03:00,24.0,18.0,30.17,NNW,337,4.0,7.0,75,-99.99,,,-99.99,,2013-03-21 04:03:00,
2013-03-20 23:13:00,24.0,16.0,30.17,NNW,337,5.0,7.0,71,-99.99,,,-99.99,,2013-03-21 04:13:00,
2013-03-20 23:22:00,24.0,16.0,30.17,NNW,337,5.0,8.0,69,-99.99,,,-99.99,,2013-03-21 04:22:00,
2013-03-20 23:32:00,24.0,15.0,30.17,NNW,337,4.0,6.0,69,-99.99,,,-99.99,,2013-03-21 04:32:00,
2013-03-20 23:43:00,24.0,15.0,30.17,East,90,5.0,7.0,68,-99.99,,,-99.99,,2013-03-21 04:43:00,
2013-03-20 23:52:00,23.0,15.0,30.17,East,90,5.0,8.0,70,-99.99,,,-99.99,,2013-03-21 04:52:00,